TimeEDT,TemperatureF,Dew PointF,Humidity,Sea Level PressureIn,VisibilityMPH,Wind Direction,Wind SpeedMPH,Gust SpeedMPH,PrecipitationIn,Events,Conditions,WindDirDegrees,DateUTC
12:57 AM,69.1,68.0,96,29.83,4.0,Calm,Calm,-,N/A,,Scattered Clouds,0,2012-10-19 04:57:00
1:57 AM,70.0,68.0,93,29.82,7.0,Calm,Calm,-,N/A,,Scattered Clouds,0,2012-10-19 05:57:00
3:16 AM,69.8,68.0,94,29.79,7.0,Calm,Calm,-,N/A,,Scattered Clouds,0,2012-10-19 07:16:00
3:57 AM,70.0,68.0,93,29.79,8.0,WSW,3.5,-,N/A,,Clear,240,2012-10-19 07:57:00
4:57 AM,69.1,68.0,96,29.78,6.0,Calm,Calm,-,N/A,,Clear,0,2012-10-19 08:57:00
6:57 AM,71.1,69.1,93,29.81,9.0,SW,5.8,-,N/A,,Clear,220,2012-10-19 10:57:00
7:57 AM,71.1,70.0,96,29.81,7.0,West,3.5,-,N/A,,Partly Cloudy,260,2012-10-19 11:57:00
9:57 AM,72.0,66.0,81,29.83,10.0,SSW,3.5,-,N/A,,Mostly Cloudy,210,2012-10-19 13:57:00
10:57 AM,71.1,68.0,90,29.81,10.0,SSW,3.5,-,0.05,,Mostly Cloudy,210,2012-10-19 14:57:00
11:57 AM,73.0,68.0,84,29.82,10.0,WSW,6.9,-,N/A,,Mostly Cloudy,240,2012-10-19 15:57:00
12:57 PM,73.9,69.1,85,29.80,10.0,SW,6.9,-,0.00,,Mostly Cloudy,220,2012-10-19 16:57:00
1:57 PM,73.9,66.0,76,29.78,10.0,SW,6.9,-,N/A,,Mostly Cloudy,220,2012-10-19 17:57:00
2:57 PM,75.0,66.9,76,29.76,10.0,SW,6.9,-,N/A,,Mostly Cloudy,220,2012-10-19 18:57:00
3:57 PM,75.0,68.0,79,29.76,10.0,SSW,8.1,-,N/A,,Scattered Clouds,200,2012-10-19 19:57:00
4:57 PM,73.9,66.9,79,29.75,10.0,SSW,8.1,-,N/A,,Scattered Clouds,210,2012-10-19 20:57:00
5:57 PM,72.0,66.9,84,29.76,10.0,SSW,8.1,-,N/A,,Scattered Clouds,210,2012-10-19 21:57:00
6:57 PM,71.1,66.9,87,29.76,10.0,SW,6.9,-,N/A,,Scattered Clouds,230,2012-10-19 22:57:00
7:57 PM,71.1,68.0,90,29.78,9.0,SW,6.9,-,N/A,,Clear,220,2012-10-19 23:57:00
8:57 PM,70.0,64.9,84,29.79,10.0,WSW,5.8,-,N/A,,Clear,240,2012-10-20 00:57:00
9:57 PM,68.0,64.0,87,29.80,10.0,West,4.6,-,N/A,,Clear,260,2012-10-20 01:57:00
10:57 PM,66.0,57.0,73,29.83,10.0,WSW,5.8,-,N/A,,Clear,250,2012-10-20 02:57:00
11:57 PM,64.0,54.0,70,29.83,10.0,West,4.6,-,N/A,,Clear,270,2012-10-20 03:57:00